Regional Weather Roundup
Issued by NWS

Home | Current Version | Previous Version | Text Only | Print | Product List | Glossary On
Versions: 1 2 3 4 5 6 7 8 9 10 11 12 13 14 15 16 17 18 19 20 21 22 23 24 25 26 27 28 29 30 31 32 33 34 35 36 37 38 39 40 41 42 43 44 45 46 47 48 49 50
000
ASUS46 KLOX 201912
RWRCA

SOUTHERN CALIFORNIA WEATHER ROUNDUP
NATIONAL WEATHER SERVICE OXNARD CALIFORNIA
1200 PM PDT SUN APR 20 2014

NOTE: "FAIR" INDICATES FEW OR NO CLOUDS BELOW 12,000 FEET WITH NO
SIGNIFICANT WEATHER AND/OR OBSTRUCTIONS TO VISIBILITY.

  -  STATIONS PRECEEDED BY AN ASTERISK (*) ARE NOT NWS OR FAA
     STATIONS AND ARE NOT SUBJECT TO NWS AND FAA QUALITY CONTROL.

CAZ041-042-087-202000-
LA AND ORANGE COUNTY COASTAL AREAS


CITY           SKY/WX    TMP DP  RH WIND       PRES   REMARKS
L.A. DOWNTOWN  SUNNY     74  55  51 CALM      30.04F
L.A. AIRPORT   MOSUNNY   66  56  70 W10       30.07F
LONG BEACH     SUNNY     68  54  60 S8        30.06F

CITY           SKY/WX    TMP DP  RH WIND       PRES   REMARKS
AVALON           N/A     68 N/A N/A N2          N/A
FULLERTON      SUNNY     75  55  49 CALM      30.04F
*GETTY CENTER    N/A     70  55  60 S8G14       N/A
HAWTHORNE      SUNNY     69  54  58 W12       30.06F
*LOS ALAMITOS  SUNNY     71  57  61 S8        30.06F
*REDONDO BEACH   N/A     64  58  79 W6        30.05F
SANTA ANA      SUNNY     72  56  57 SW8       30.06F
STA MONICA APT SUNNY     68  55  63 SW9       30.07F
*UCLA            N/A     66  54  63 SW8       30.04S

$$

CAZ547-548-048-202000-
LA COUNTY VALLEYS AND INLAND EMPIRE


CITY           SKY/WX    TMP DP  RH WIND       PRES   REMARKS
BURBANK        SUNNY     74  51  44 CALM      30.05F
VAN NUYS       SUNNY     76  48  37 CALM      30.05F

CITY           SKY/WX    TMP DP  RH WIND       PRES   REMARKS
CORONA AIRPORT CLEAR     77  54  44 W9        30.05F HAZE
*CHATSWORTH      N/A     78  53  40 SW1       30.02F
CHINO          SUNNY     79  55  43 SW7       30.05F
MARCH AFB      MOSUNNY   77  52  41 NW9       30.05F
ONTARIO        MOSUNNY   76  50  40 VRB6      30.05F
*PASADENA        N/A     77  57  50 E3          N/A
POMONA         SUNNY     73  54  49 W6        30.09S
RIVERSIDE      SUNNY     77  51  40 VRB6      30.04F
SAN BERNARDINO SUNNY     77  45  31 W6        30.05F
*SAN GABRIEL     N/A     74  51  44 CALM      30.02F
*WHITEMAN AP   SUNNY     73  48  40 S5        30.09F
*WOODLAND HILL   N/A     81  46  30 NW2         N/A

$$

CAZ054-055-202000-
LA AND SAN BERNARDINO COUNTY MOUNTAINS


CITY           SKY/WX    TMP DP  RH WIND       PRES   REMARKS
*BIG BEAR AIRP CLEAR     63  28  27 W10       30.27S
*CHILAO          N/A     71  29  21 W9          N/A
MT WILSON NWS    N/A     68  37  32 MISG        N/A
SANDBERG       SUNNY     70  28  21 NW8       30.18S
*WARM SPRINGS    N/A     76  34  21 SE3         N/A

$$

CAZ028-029-059-060-099-202000-
ANTELOPE VALLEY AND SURROUNDING AREAS


CITY           SKY/WX    TMP DP  RH WIND       PRES   REMARKS
LANCASTER      SUNNY     79  29  16 W5        30.07F
PALMDALE       SUNNY     78  29  16 CALM      30.08F

CITY           SKY/WX    TMP DP  RH WIND       PRES   REMARKS
29 PALMS       SUNNY     83  37  19 VRB7      30.11F
BARSTOW/DAGGET SUNNY     82  30  15 W7        30.05F
BISHOP         SUNNY     75  17  11 CALM      30.13F
CHINA LAKE       N/A     81  42  25 VRB3      30.05F
EDWARDS AFB    MOSUNNY   77  32  19 VRB3      30.06F
MOJAVE         FAIR      77  32  19 SE7       30.09F
NEEDLES        SUNNY     90  38  16 MISG      29.99F
VICTORVILLE    MOSUNNY   79  28  15 W8        30.09F

$$

CAZ039-040-202000-
VENTURA AND SANTA BARBARA COUNTY COAST


CITY           SKY/WX    TMP DP  RH WIND       PRES   REMARKS
CAMARILLO      SUNNY     70  56  61 SW10      30.06F
NWS OXNARD       N/A     70  56  62 S13       30.06S
OXNARD AIRPORT SUNNY     65  56  72 W7        30.07F
*POINT MUGU    SUNNY     69  58  67 S9        30.06F
SBA APT/GOLETA SUNNY     65  54  67 VRB3      30.07S
*VENTURA         N/A     70  57  63 SW5       30.11S

$$

CAZ044-045-202000-
VENTURA COUNTY VALLEYS


CITY           SKY/WX    TMP DP  RH WIND       PRES   REMARKS
*SIMI VALLEY     N/A     75  53  45 W3        30.00F
*OJAI            N/A     80  57  45 W2        29.99F
*FILLMORE        N/A     78  59  51 SW2       29.94F

$$

CAZ053-202000-
VENTURA COUNTY MOUNTAINS


CITY           SKY/WX    TMP DP  RH WIND       PRES   REMARKS
*LOCKWOOD VLY    N/A     72  18  13 MISG        N/A
*ROSE VALLEY     N/A     77  45  31 MISG        N/A

$$

CAZ034-035-036-202000-
CENTRAL COAST AND SANTA YNEZ VALLEY


CITY           SKY/WX    TMP DP  RH WIND       PRES   REMARKS
SAN LUIS OBISP SUNNY     74  52  46 NW15      30.07S
SANTA MARIA    SUNNY     74  49  41 NW10      30.08S

CITY           SKY/WX    TMP DP  RH WIND       PRES   REMARKS
*CAL POLY SLO    N/A     75  52  43 VRB10G20    N/A
*LOMPOC        SUNNY     64  48  55 W17       30.11R
*PISMO BEACH     N/A     53  51  92 SW6       30.10S
*SANTA YNEZ    FAIR      72  50  46 NW9       30.07F

$$

CAZ037-038-051-202000-
SAN LUIS OBISPO COUNTY INTERIOR AND CUYAMA VALLEY


CITY           SKY/WX    TMP DP  RH WIND       PRES   REMARKS
*CUYAMA          N/A     71  33  25 NE6       29.94F
PASO ROBLES    SUNNY     71  44  37 MISG      30.12F

$$

CAZ032-033-061-202000-
SOUTHERN DESERTS


CITY           SKY/WX    TMP DP  RH WIND       PRES   REMARKS
BLYTHE         SUNNY     87  44  22 CALM      29.99F
IMPERIAL       SUNNY     86  51  29 VRB3      29.98F
PALM SPRINGS   MOSUNNY   86  45  23 SE5       30.00F
THERMAL        SUNNY     87  49  26 SE6       29.96F

$$

ELSEWHERE ACROSS THE WESTERN UNITED STATES AND MEXICO


CITY           SKY/WX    TMP DP  RH WIND       PRES   REMARKS
DENVER, CO     MOSUNNY   69  35  28 VRB3      30.06F
GRAND CANYON,  MOSUNNY   65  34  31 VRB5      30.24F
HONOLULU, HI   PTSUNNY   77  64  65 NE15G23   30.14S
KAHULUI, MAUI  MOSUNNY   75  70  83 NE18G24   30.14R
LAKE TAHOE, CA SUNNY     59  19  21 NE9       30.27F
LAS VEGAS, NV  MOSUNNY   84  35  17 CALM      29.99F
MAMMOTH LAKES, FAIR      64  12  13 SE10      30.26F
MEXICO CITY, M PTSUNNY   77  34  20 N5        30.32F
PHOENIX, AZ    MOSUNNY   84  41  21 VRB6      30.02F
PORTLAND, OR   CLOUDY    57  42  57 N6        30.27F
RENO, NV       PTSUNNY   63  20  19 VRB3      30.25F
SALT LAKE CITY MOSUNNY   68  25  19 NW13      30.16F
SAN DIEGO, CA  MOSUNNY   66  55  67 SW9       30.08S
SAN FRANCISCO, MOSUNNY   67  54  63 NE6       30.14S
SAN JOSE, CA   MOSUNNY   69  51  52 W5        30.13F
SEATTLE, WA    PTSUNNY   55  35  47 S6        30.28F
TIJUANA, MEX   SUNNY     70  55  60 W14       30.08F

$$

STATION/POSITION TIME  TEMP    WIND        PRES    VSBY  WAVE
                       AIR SEA DIR/SP/G                  HT/PER
                 (UTC) (F)     (DEG/KT/KT) (MB)    (MI)  (FT/S)
POINT ARGUELLO B NOT AVBL
WEST SANTA BARBA 1900   52 54  320/ 14/ 16 1018.7F         6/ 7
POINT CONCEPTION NOT AVBL
EAST SANTA BARBA NOT AVBL
SANTA MONICA BAY 1900   60 62  150/  4/  6 1018.2F         4/15



USA.gov is the U.S. government's official web portal to all federal, state and local government web resources and services.